Weather History for Hazlehurst, GA

Change the Weather History Date:

Sunday, December 23, 2012

  Actual Average Record
Temperature  
Mean Temperature 44 °F -  
Max Temperature 75 °F 62 °F 80 °F (2013)
Min Temperature 30 °F 34 °F 30 °F (2012)
Degree Days  
Heating Degree Days 20    
Moisture  
Dew Point 31 °F    
Average Humidity 63    
Maximum Humidity 94    
Minimum Humidity 30    
Precipitation  
Precipitation 0.00 in - - ()
Sea Level Pressure  
Sea Level Pressure 30.19 in    
Wind  
Wind Speed 2 mph (WSW)    
Max Wind Speed 5 mph    
Max Gust Speed -    
Visibility 10 miles    
Events      
Averages and records for this station are not official NWS values.
T = Trace of Precipitation, MM = Missing Value Source: NWS Daily Summary

Daily Weather History Graph

Daily Weather History Graph

Search for Another Location

Airport:

Trip Planner

Search our weather history database for the weather conditions in past years. The results will help you decide how hot, cold, wet, or windy it might be!

Date:

Astronomy

Dec. 23, 2012 Rise Set
Actual Time 7:27 AM EST 5:32 PM EST
Civil Twilight 7:00 AM EST 5:59 PM EST
Nautical Twilight 6:30 AM EST 6:29 PM EST
Astronomical Twilight 6:00 AM EST 6:59 PM EST
Moon 2:15 PM EST (12/23) 3:17 AM EST (12/23)
Length of Visible Light 10h 58m
Length of Day
10h 04m
Waxing Gibbous, 81% of the Moon is Illuminated
Dec 23
Waxing Gibbous
Dec 28
Full
Jan 4
Last Quarter
Jan 11
New
Jan 18
First Quarter

Hourly Weather History & Observations

Time (EST) Temp. Windchill Dew Point Humidity Pressure Visibility Wind Dir Wind Speed Gust Speed Precip Events Conditions
12:15 AM 36.0 °F 33.3 °F 29.7 °F 78% 30.22 in 10.0 mi West 3.5 mph - N/A   Clear
12:35 AM 36.5 °F 33.9 °F 28.0 °F 71% 30.22 in 10.0 mi West 3.5 mph - N/A   Clear
12:55 AM 36.1 °F 33.5 °F 28.4 °F 73% 30.21 in 10.0 mi West 3.5 mph - N/A   Clear
1:15 AM 35.2 °F - 31.3 °F 85% 30.21 in 10.0 mi Calm Calm - N/A   Clear
1:35 AM 33.8 °F - 30.4 °F 87% 30.21 in 10.0 mi Calm Calm - N/A   Clear
1:55 AM 33.1 °F - 29.5 °F 87% 30.20 in 10.0 mi Calm Calm - N/A   Clear
2:15 AM 32.4 °F - 28.6 °F 86% 30.20 in 10.0 mi Calm Calm - N/A   Clear
2:35 AM 33.3 °F 28.9 °F 29.3 °F 85% 30.21 in 10.0 mi WSW 4.6 mph - N/A   Clear
2:55 AM 34.3 °F - 26.2 °F 72% 30.21 in 10.0 mi Calm Calm - N/A   Clear
3:15 AM 33.8 °F 30.8 °F 26.8 °F 75% 30.20 in 10.0 mi WSW 3.5 mph - N/A   Clear
3:35 AM 34.0 °F 29.8 °F 26.2 °F 73% 30.20 in 10.0 mi WSW 4.6 mph - N/A   Clear
3:55 AM 33.8 °F 30.8 °F 25.9 °F 73% 30.20 in 10.0 mi WSW 3.5 mph - N/A   Clear
4:15 AM 33.8 °F 30.8 °F 26.2 °F 74% 30.20 in 10.0 mi WSW 3.5 mph - N/A   Clear
4:35 AM 33.6 °F - 26.2 °F 74% 30.20 in 10.0 mi Calm Calm - N/A   Clear
4:55 AM 33.3 °F 28.9 °F 26.4 °F 76% 30.21 in 10.0 mi West 4.6 mph - N/A   Clear
5:15 AM 33.1 °F - 28.0 °F 82% 30.20 in 10.0 mi Calm Calm - N/A   Clear
5:35 AM 31.5 °F - 28.8 °F 90% 30.20 in 10.0 mi Calm Calm - N/A   Clear
5:55 AM 31.5 °F - 29.7 °F 93% 30.20 in 10.0 mi Calm Calm - N/A   Clear
6:15 AM 31.5 °F 26.8 °F 28.6 °F 89% 30.22 in 10.0 mi West 4.6 mph - N/A   Clear
6:35 AM 32.5 °F - 27.0 °F 80% 30.22 in 10.0 mi Calm Calm - N/A   Clear
6:55 AM 31.6 °F - 27.9 °F 86% 30.22 in 10.0 mi Calm Calm - N/A   Clear
7:15 AM 30.9 °F - 29.1 °F 93% 30.22 in 10.0 mi Calm Calm - N/A   Clear
7:55 AM 31.1 °F - 29.7 °F 94% 30.23 in 10.0 mi Calm Calm - N/A   Clear
8:15 AM 32.5 °F - 28.9 °F 87% 30.24 in 10.0 mi Calm Calm - N/A   Clear
8:35 AM 35.2 °F 32.4 °F 28.2 °F 76% 30.25 in 10.0 mi WSW 3.5 mph - N/A   Clear
8:55 AM 38.5 °F - 27.1 °F 64% 30.26 in 10.0 mi Calm Calm - N/A   Clear
9:15 AM 39.4 °F - 27.7 °F 63% 30.26 in 10.0 mi Calm Calm - N/A   Clear
9:35 AM 40.8 °F - 29.1 °F 63% 30.26 in 10.0 mi Calm Calm - N/A   Clear
9:55 AM 42.8 °F - 28.9 °F 58% 30.26 in 10.0 mi Calm Calm - N/A   Clear
10:15 AM 44.4 °F - 28.8 °F 54% 30.26 in 10.0 mi Calm Calm - N/A   Clear
10:35 AM 46.4 °F 45.2 °F 28.4 °F 50% 30.26 in 10.0 mi NW 3.5 mph - N/A   Clear
10:55 AM 48.4 °F - 29.1 °F 47% 30.26 in 10.0 mi Calm Calm - N/A   Clear
11:15 AM 49.6 °F - 29.8 °F 47% 30.25 in 10.0 mi Calm Calm - N/A   Clear
11:35 AM 50.4 °F - 31.3 °F 48% 30.24 in 10.0 mi Calm Calm - N/A   Clear
11:55 AM 51.6 °F - 32.4 °F 48% 30.23 in 10.0 mi Calm Calm - N/A   Clear
12:15 PM 54.0 °F - 32.5 °F 44% 30.22 in 10.0 mi WNW 4.6 mph - N/A   Clear
12:35 PM 55.2 °F - 32.0 °F 41% 30.21 in 10.0 mi West 3.5 mph - N/A   Clear
12:55 PM 55.8 °F - 32.2 °F 41% 30.20 in 10.0 mi Calm Calm - N/A   Clear
1:15 PM 56.5 °F - 32.0 °F 39% 30.19 in 10.0 mi Calm Calm - N/A   Clear
1:35 PM 57.4 °F - 31.5 °F 37% 30.17 in 10.0 mi NW 3.5 mph - N/A   Scattered Clouds
1:55 PM 59.2 °F - 30.6 °F 34% 30.17 in 10.0 mi Calm Calm - N/A   Scattered Clouds
2:15 PM 59.2 °F - 28.8 °F 31% 30.16 in 10.0 mi West 4.6 mph - N/A   Clear
2:35 PM 58.5 °F - 27.0 °F 30% 30.16 in 10.0 mi WNW 4.6 mph - N/A   Clear
2:55 PM 59.0 °F - 29.1 °F 32% 30.15 in 10.0 mi West 3.5 mph - N/A   Clear
3:15 PM 58.6 °F - 28.9 °F 32% 30.15 in 10.0 mi Calm Calm - N/A   Clear
3:35 PM 57.7 °F - 28.9 °F 33% 30.14 in 10.0 mi Calm Calm - N/A   Clear
3:55 PM 57.6 °F - 30.6 °F 36% 30.14 in 10.0 mi Calm Calm - N/A   Clear
4:15 PM 57.4 °F - 30.9 °F 37% 30.14 in 10.0 mi Calm Calm - N/A   Clear
4:35 PM 56.7 °F - 32.0 °F 39% 30.14 in 10.0 mi Calm Calm - N/A   Clear
4:55 PM 55.2 °F - 33.8 °F 44% 30.14 in 10.0 mi Calm Calm - N/A   Clear
5:15 PM 54.0 °F - 34.0 °F 47% 30.14 in 10.0 mi Calm Calm - N/A   Clear
5:35 PM 52.9 °F - 34.0 °F 49% 30.12 in 10.0 mi Calm Calm - N/A   Scattered Clouds
5:55 PM 52.9 °F - 33.8 °F 48% 30.12 in 10.0 mi South 3.5 mph - N/A   Overcast
6:15 PM 52.7 °F - 34.7 °F 50% 30.12 in 10.0 mi South 3.5 mph - N/A   Mostly Cloudy
6:35 PM 52.7 °F - 35.1 °F 51% 30.13 in 10.0 mi Calm Calm - N/A   Scattered Clouds
6:55 PM 52.0 °F - 36.1 °F 55% 30.13 in 10.0 mi Calm Calm - N/A   Scattered Clouds
7:15 PM 51.4 °F - 36.9 °F 58% 30.15 in 10.0 mi Calm Calm - N/A   Clear
7:35 PM 50.2 °F - 37.4 °F 62% 30.14 in 10.0 mi Calm Calm - N/A   Clear
7:55 PM 49.3 °F - 37.6 °F 64% 30.13 in 10.0 mi SSW 3.5 mph - N/A   Clear
8:15 PM 49.6 °F - 35.8 °F 59% 30.14 in 10.0 mi Calm Calm - N/A   Scattered Clouds
8:35 PM 49.6 °F - 36.7 °F 61% 30.15 in 10.0 mi Calm Calm - N/A   Scattered Clouds
8:55 PM 48.0 °F - 39.2 °F 72% 30.14 in 10.0 mi Calm Calm - N/A   Scattered Clouds
9:15 PM 47.1 °F - 37.4 °F 69% 30.15 in 10.0 mi Calm Calm - N/A   Clear
9:35 PM 46.0 °F - 37.2 °F 71% 30.15 in 10.0 mi Calm Calm - N/A   Clear
9:55 PM 45.5 °F - 36.7 °F 71% 30.15 in 10.0 mi Calm Calm - N/A   Clear
10:15 PM 44.1 °F - 36.5 °F 75% 30.15 in 10.0 mi Calm Calm - N/A   Mostly Cloudy
10:35 PM 44.8 °F - 37.6 °F 76% 30.15 in 10.0 mi Calm Calm - N/A   Overcast
10:55 PM 44.4 °F - 36.7 °F 74% 30.15 in 10.0 mi Calm Calm - N/A   Overcast
11:15 PM 43.9 °F - 37.8 °F 79% 30.15 in 10.0 mi Calm Calm - N/A   Mostly Cloudy
11:35 PM 44.6 °F - 36.9 °F 74% 30.14 in 10.0 mi Calm Calm - N/A   Mostly Cloudy
11:55 PM 45.9 °F - 37.2 °F 72% 30.14 in 10.0 mi Calm Calm - N/A   Scattered Clouds